Regional Weather Roundup
Issued by NWS Sterling, VA

Home | Current Version | Previous Version | Text Only | Print | Product List | Glossary Off
Versions: 1 2 3 4 5 6 7 8 9 10 11 12 13 14 15 16 17 18 19 20 21 22 23 24 25 26 27

000
ASUS41 KLWX 221210
RWRLWX

REGIONAL WEATHER ROUNDUP
NATIONAL WEATHER SERVICE BALTIMORE MD/WASHINGTON DC
700 AM EST SUN JAN 22 2017

Note: "FAIR" indicates few or no clouds below 12,000 feet
with no significant weather and/or obstructions to visibility.
 TC=TEMPERATURE CELSIUS

 * =Non NWS site. Station does not report precipitation (e.g. rain,
    snow, etc.), thunder, or fog.

DCZ001-MDZ009-015-VAZ040>042-051-053>054-221300-
WASHINGTON METRO

CITY           SKY/WX    TMP DP  RH WIND       PRES   REMARKS
WASHINGTON NAT DRIZZLE   47  47 100 N8        29.71R FOG
DULLES         FOG       46  45  96 NE5       29.71R VSB 1/8
ANDREWS AFB    DRIZZLE   45  45 100 N9        29.68R FOG
FT BELVOIR     CLOUDY    47  46  97 N3        29.69R FOG
QUANTICO       FOG       48  48 100 N6        29.70R VSB 1
COLLEGE PARK*  CLOUDY    45  45 100 N3        29.70R
LEESBURG*      CLOUDY    46  46 100 CALM      29.72R
MANASSAS*      FOG      N/A N/A N/A CALM      29.70  VSB 1/4
GAITHERSBURG*  CLOUDY    45  41  87 CALM      29.74R VSB 1

$$

MDZ006>007-011-014-221300-
BALTIMORE METRO

CITY           SKY/WX    TMP DP  RH WIND       PRES   REMARKS
BWI AIRPORT    FOG       45  45 100 CALM      29.69F VSB 3/4
MD SCIENCE CTR   N/A     47  44  90 MISG      29.70F
MARTIN STATE   FOG       46  46 100 CALM      29.69F VSB 1/2
ANNAPOLIS      CLOUDY    45  44  97 N6        29.68S FOG
FORT MEADE*    CLOUDY    45  43  93 CALM      29.72R VSB 1

$$

MDZ012-015-019>023-221300-
MARYLAND EASTERN SHORE

CITY           SKY/WX    TMP DP  RH WIND       PRES   REMARKS
OCEAN CITY     CLOUDY    47  47 100 N8        29.63F
SALISBURY      CLOUDY    48  48 100 NE8       29.64F
BAY BRIDGE AP* FOG       43  43 100 N6        29.69R VSB 3/4
CAMBRIDGE*     CLOUDY    46  46 100 CALM      29.65R
EASTON*        CLOUDY    48  46  93 NE7       29.69F FOG

$$

MDZ017>025-221300-
SOUTHERN MARYLAND

CITY           SKY/WX    TMP DP  RH WIND       PRES   REMARKS
PATUXENT RIVER LGT RAIN  47  47 100 N10       29.66R FOG
ST INIGOES     CLOUDY    49  48  97 VRB3      29.64S FOG
LEONARDTOWN*   CLOUDY    45  45 100 N5        29.68R

$$

MDZ003>005-221300-
NORTH CENTRAL MARYLAND

CITY           SKY/WX    TMP DP  RH WIND       PRES   REMARKS
FREDERICK*     CLOUDY    45  45 100 NE3       29.72R FOG
HAGERSTOWN APT CLOUDY    44  42  93 N6        29.68S FOG
WESTMINSTER*   FOG       43  43 100 N5        29.69R VSB 3/4

$$

MDZ501>502-221300-
WESTERN MARYLAND

CITY           SKY/WX    TMP DP  RH WIND       PRES   REMARKS
OAKLAND*         N/A     46  43  87 E6        29.66R
CUMBERLAND*    CLOUDY    45  45 100 NE3       29.73R VSB 1

$$

VAZ025>031-221300-
SHENANDOAH VALLEY

CITY           SKY/WX    TMP DP  RH WIND       PRES   REMARKS
WINCHESTER*    CLOUDY    43  43 100 CALM      29.71R FOG
FRONT ROYAL*   CLOUDY    45  45 100 CALM      29.69R
LURAY*         CLOUDY    45  45 100 NE3       29.69R FOG
NEW MARKET*    CLOUDY    44  43  96 NE5       29.68R
STAUNTON*      FOG       44  44 100 CALM      29.70R VSB 3/4
WAYNESBORO*    CLOUDY    46  44  95 CALM      29.67R VSB 1/4

$$

WVZ021-048>050-054>055-221300-
EASTERN WEST VIRGINIA PANHANDLE

CITY           SKY/WX    TMP DP  RH WIND       PRES   REMARKS
MARTINSBURG    CLOUDY    45  44  97 CALM      29.70R FOG
PETERSBURG*    CLOUDY    46  46  99 CALM      29.70R FOG

$$

VAZ036>039-050-221300-
CENTRAL FOOTHILLS

CITY           SKY/WX    TMP DP  RH WIND       PRES   REMARKS
CHARLOTTESVILL CLOUDY    49  47  93 N5        29.68R
CULPEPER*      CLOUDY    48  48 100 CALM      29.70R
ORANGE*          N/A     48  48 100 CALM      29.71R FOG
GORDONSVILLE*  CLOUDY    48  48 100 NE3       29.68R FOG
WARRENTON*     CLOUDY    49  46  91 N5        29.69R FOG

$$

VAZ055>057-221300-
NORTH AND CENTRAL PIEDMONT

CITY           SKY/WX    TMP DP  RH WIND       PRES   REMARKS
FREDERICKSBRG* CLOUDY    48  48 100 N3        29.68R
STAFFORD*      CLOUDY    47  47 100 NW3       29.73R FOG

$$

NCZ024-NYZ072-PAZ021-071-VAZ022-071-221300-
OTHER REGIONAL OBSERVATIONS

CITY           SKY/WX    TMP DP  RH WIND       PRES   REMARKS
NEW YORK CITY  CLOUDY    43  43 100 NW3       29.76R FOG
PHILADELPHIA   CLOUDY    46  45  96 NE7       29.70F
PITTSBURGH     CLOUDY    47  47 100 CALM      29.63R
ROANOKE        CLOUDY    50  50 100 E5        29.70R
RICHMOND       CLOUDY    48  48 100 N3        29.66R
RALEIGH        CLOUDY    53  52  96 W5        29.70R

$$

ANZ530>537-221300-
MARINE OBSERVATIONS

STATION/POSITION TIME  TEMP    WIND        PRES
                       AIR SEA DIR/SP/G
                 (UTC) (F)     (DEG/KT/KT) (MB)
THOMAS PT LIGHT  1200   43 40  360/ 10/ 11   N/A
BALT KEY BRIDGE  1148   44     350/  5/  5 1005.3F
COVE POINT       1148   42     360/ 10/ 14 1004.8R
LEWISETTA        1148   46 44  360/  2/  3 1003.7R
SOLOMONS ISLAND  1148      42  350/  8/  9   N/A
PINEY POINT      1148          360/  6/  6   N/A

$$





USA.gov is the U.S. government's official web portal to all federal, state and local government web resources and services.